Time,TemperatureF,DewpointF,PressureIn,WindDirection,WindDirectionDegrees,WindSpeedMPH,WindSpeedGustMPH,Humidity,HourlyPrecipIn,Conditions,Clouds,dailyrainin,SoftwareType,DateUTC
2013-03-16 00:00:00,59.3,43.6,29.92,ESE,123,4.0,15.0,56,0.00,,---,0.00,VWS V14.00,2013-03-16 04:00:00,
2013-03-16 00:05:00,59.2,43.5,29.92,SSE,167,10.0,15.0,56,0.00,,---,0.00,VWS V14.00,2013-03-16 04:05:00,
2013-03-16 00:10:00,59.2,43.5,29.92,SW,218,0.0,12.0,56,0.00,,---,0.00,VWS V14.00,2013-03-16 04:10:00,
2013-03-16 00:15:00,59.0,43.3,29.91,SSE,164,0.0,12.0,56,0.00,,---,0.00,VWS V14.00,2013-03-16 04:15:00,
2013-03-16 00:20:00,59.0,43.3,29.92,West,280,7.0,12.0,56,0.00,,---,0.00,VWS V14.00,2013-03-16 04:20:00,
2013-03-16 00:25:00,59.0,43.3,29.91,SSE,150,0.0,14.0,56,0.00,,---,0.00,VWS V14.00,2013-03-16 04:25:00,
2013-03-16 00:30:00,59.0,43.3,29.91,SSE,161,6.0,14.0,56,0.00,,---,0.00,VWS V14.00,2013-03-16 04:30:00,
2013-03-16 00:35:00,59.0,43.8,29.90,SW,223,1.0,14.0,57,0.00,,---,0.00,VWS V14.00,2013-03-16 04:35:00,
2013-03-16 00:40:00,58.9,43.7,29.90,SSW,208,2.0,12.0,57,0.00,,---,0.00,VWS V14.00,2013-03-16 04:40:00,
2013-03-16 00:45:00,58.8,43.6,29.90,South,175,2.0,12.0,57,0.00,,---,0.00,VWS V14.00,2013-03-16 04:45:00,
2013-03-16 00:50:00,58.7,43.1,29.90,SSW,194,2.0,12.0,56,0.00,,---,0.00,VWS V14.00,2013-03-16 04:50:00,
2013-03-16 00:55:00,58.7,43.1,29.90,South,191,6.0,12.0,56,0.00,,---,0.00,VWS V14.00,2013-03-16 04:55:00,
2013-03-16 01:00:00,58.9,43.7,29.90,SW,221,5.0,16.0,57,0.00,,---,0.00,VWS V14.00,2013-03-16 05:00:00,
2013-03-16 01:05:00,59.0,43.3,29.90,South,180,1.0,16.0,56,0.00,,---,0.00,VWS V14.00,2013-03-16 05:05:00,
2013-03-16 01:10:00,59.0,43.3,29.89,SE,136,3.0,13.0,56,0.00,,---,0.00,VWS V14.00,2013-03-16 05:10:00,
2013-03-16 01:15:00,59.0,43.3,29.89,South,182,5.0,18.0,56,0.00,,---,0.00,VWS V14.00,2013-03-16 05:15:00,
2013-03-16 01:20:00,59.0,43.3,29.89,West,259,6.0,18.0,56,0.00,,---,0.00,VWS V14.00,2013-03-16 05:20:00,
2013-03-16 01:25:00,59.0,43.3,29.89,South,177,6.0,18.0,56,0.00,,---,0.00,VWS V14.00,2013-03-16 05:25:00,
2013-03-16 01:30:00,59.0,43.3,29.88,SSE,148,1.0,18.0,56,0.00,,---,0.00,VWS V14.00,2013-03-16 05:30:00,
2013-03-16 01:35:00,59.0,43.3,29.88,SW,233,4.0,18.0,56,0.00,,---,0.00,VWS V14.00,2013-03-16 05:35:00,
2013-03-16 01:40:00,59.0,43.8,29.88,WNW,287,3.0,12.0,57,0.00,,---,0.00,VWS V14.00,2013-03-16 05:40:00,
2013-03-16 01:45:00,59.0,43.8,29.88,SW,219,3.0,12.0,57,0.00,,---,0.00,VWS V14.00,2013-03-16 05:45:00,
2013-03-16 01:50:00,59.0,44.3,29.88,SSW,207,1.0,12.0,58,0.00,,---,0.00,VWS V14.00,2013-03-16 05:50:00,
2013-03-16 01:55:00,58.7,43.5,29.88,SSW,205,2.0,12.0,57,0.00,,---,0.00,VWS V14.00,2013-03-16 05:55:00,
2013-03-16 02:00:00,58.6,43.4,29.89,SW,218,0.0,12.0,57,0.00,,---,0.00,VWS V14.00,2013-03-16 06:00:00,
2013-03-16 02:05:00,58.5,43.8,29.89,SSE,161,5.0,12.0,58,0.00,,---,0.00,VWS V14.00,2013-03-16 06:05:00,
2013-03-16 02:10:00,58.4,43.2,29.88,ESE,113,3.0,11.0,57,0.00,,---,0.00,VWS V14.00,2013-03-16 06:10:00,
2013-03-16 02:15:00,58.3,43.6,29.88,East,98,0.0,13.0,58,0.00,,---,0.00,VWS V14.00,2013-03-16 06:15:00,
2013-03-16 02:20:00,58.3,43.6,29.89,WNW,301,1.0,15.0,58,0.00,,---,0.00,VWS V14.00,2013-03-16 06:20:00,
2013-03-16 02:25:00,58.4,43.2,29.88,SSE,168,5.0,15.0,57,0.00,,---,0.00,VWS V14.00,2013-03-16 06:25:00,
2013-03-16 02:30:00,58.2,43.5,29.88,SE,138,11.0,15.0,58,0.00,,---,0.00,VWS V14.00,2013-03-16 06:30:00,
2013-03-16 02:35:00,58.1,43.4,29.89,South,178,15.0,15.0,58,0.00,,---,0.00,VWS V14.00,2013-03-16 06:35:00,
2013-03-16 02:40:00,58.1,43.4,29.88,SSE,154,0.0,14.0,58,0.00,,---,0.00,VWS V14.00,2013-03-16 06:40:00,
2013-03-16 02:45:00,57.9,43.2,29.88,South,188,14.0,15.0,58,0.00,,---,0.00,VWS V14.00,2013-03-16 06:45:00,
2013-03-16 02:50:00,58.2,43.5,29.88,SSW,207,0.0,15.0,58,0.00,,---,0.00,VWS V14.00,2013-03-16 06:50:00,
2013-03-16 02:55:00,57.9,43.2,29.89,SW,221,4.0,15.0,58,0.00,,---,0.00,VWS V14.00,2013-03-16 06:55:00,
2013-03-16 03:00:00,58.0,42.9,29.89,South,173,8.0,15.0,57,0.00,,---,0.00,VWS V14.00,2013-03-16 07:00:00,
2013-03-16 03:05:00,58.1,43.0,29.88,South,171,3.0,15.0,57,0.00,,---,0.00,VWS V14.00,2013-03-16 07:05:00,
2013-03-16 03:10:00,58.1,43.0,29.89,WSW,254,5.0,18.0,57,0.00,,---,0.00,VWS V14.00,2013-03-16 07:10:00,
2013-03-16 03:15:00,58.1,43.0,29.89,South,187,0.0,18.0,57,0.00,,---,0.00,VWS V14.00,2013-03-16 07:15:00,
2013-03-16 03:20:00,58.1,43.0,29.89,SE,142,5.0,18.0,57,0.00,,---,0.00,VWS V14.00,2013-03-16 07:20:00,
2013-03-16 03:25:00,58.2,42.6,29.89,South,170,5.0,18.0,56,0.00,,---,0.00,VWS V14.00,2013-03-16 07:25:00,
2013-03-16 03:30:00,58.2,43.1,29.89,South,175,0.0,18.0,57,0.00,,---,0.00,VWS V14.00,2013-03-16 07:30:00,
2013-03-16 03:35:00,58.1,43.0,29.88,NE,55,0.0,18.0,57,0.00,,---,0.00,VWS V14.00,2013-03-16 07:35:00,
2013-03-16 03:40:00,58.0,42.4,29.88,SSW,196,3.0,15.0,56,0.00,,---,0.00,VWS V14.00,2013-03-16 07:40:00,
2013-03-16 03:45:00,58.1,42.5,29.88,South,189,2.0,15.0,56,0.00,,---,0.00,VWS V14.00,2013-03-16 07:45:00,
2013-03-16 03:50:00,58.1,42.5,29.88,South,180,9.0,15.0,56,0.00,,---,0.00,VWS V14.00,2013-03-16 07:50:00,
2013-03-16 03:55:00,58.2,42.6,29.88,SSE,159,6.0,15.0,56,0.00,,---,0.00,VWS V14.00,2013-03-16 07:55:00,
2013-03-16 04:00:00,58.3,42.2,29.88,SW,226,5.0,20.0,55,0.00,,---,0.00,VWS V14.00,2013-03-16 08:00:00,
2013-03-16 04:05:00,58.4,42.3,29.88,SSE,160,3.0,20.0,55,0.00,,---,0.00,VWS V14.00,2013-03-16 08:05:00,
2013-03-16 04:10:00,58.4,42.3,29.88,ESE,107,4.0,7.0,55,0.00,,---,0.00,VWS V14.00,2013-03-16 08:10:00,
2013-03-16 04:15:00,58.3,42.2,29.88,NNW,341,5.0,15.0,55,0.00,,---,0.00,VWS V14.00,2013-03-16 08:15:00,
2013-03-16 04:20:00,58.3,42.2,29.88,SSE,162,2.0,15.0,55,0.00,,---,0.00,VWS V14.00,2013-03-16 08:20:00,
2013-03-16 04:25:00,58.2,42.1,29.88,SSE,154,7.0,15.0,55,0.00,,---,0.00,VWS V14.00,2013-03-16 08:25:00,
2013-03-16 04:30:00,58.3,42.2,29.87,SSW,200,1.0,15.0,55,0.00,,---,0.00,VWS V14.00,2013-03-16 08:30:00,
2013-03-16 04:35:00,58.2,42.1,29.87,South,187,6.0,15.0,55,0.00,,---,0.00,VWS V14.00,2013-03-16 08:35:00,
2013-03-16 04:40:00,58.1,42.0,29.87,SSE,162,12.0,13.0,55,0.00,,---,0.00,VWS V14.00,2013-03-16 08:40:00,
2013-03-16 04:45:00,58.1,42.0,29.88,West,275,6.0,19.0,55,0.00,,---,0.00,VWS V14.00,2013-03-16 08:45:00,
2013-03-16 04:50:00,58.1,42.0,29.87,SSE,153,4.0,19.0,55,0.00,,---,0.00,VWS V14.00,2013-03-16 08:50:00,
2013-03-16 04:55:00,57.9,42.3,29.87,South,179,8.0,19.0,56,0.00,,---,0.00,VWS V14.00,2013-03-16 08:55:00,
2013-03-16 05:00:00,57.8,41.8,29.86,South,182,6.0,19.0,55,0.00,,---,0.00,VWS V14.00,2013-03-16 09:00:00,
2013-03-16 05:05:00,57.8,41.8,29.87,South,180,4.0,19.0,55,0.00,,---,0.00,VWS V14.00,2013-03-16 09:05:00,
2013-03-16 05:10:00,57.8,41.8,29.86,South,188,9.0,12.0,55,0.00,,---,0.00,VWS V14.00,2013-03-16 09:10:00,
2013-03-16 05:15:00,57.7,41.7,29.86,SE,142,5.0,12.0,55,0.00,,---,0.00,VWS V14.00,2013-03-16 09:15:00,
2013-03-16 05:20:00,57.8,41.8,29.86,East,101,0.0,14.0,55,0.00,,---,0.00,VWS V14.00,2013-03-16 09:20:00,
2013-03-16 05:25:00,57.5,41.5,29.87,SSW,196,2.0,14.0,55,0.00,,---,0.00,VWS V14.00,2013-03-16 09:25:00,
2013-03-16 05:30:00,57.3,41.8,29.87,WSW,258,3.0,14.0,56,0.00,,---,0.00,VWS V14.00,2013-03-16 09:30:00,
2013-03-16 05:35:00,57.1,41.1,29.88,SSW,196,4.0,14.0,55,0.00,,---,0.00,VWS V14.00,2013-03-16 09:35:00,
2013-03-16 05:40:00,57.2,41.7,29.87,South,184,5.0,10.0,56,0.00,,---,0.00,VWS V14.00,2013-03-16 09:40:00,
2013-03-16 05:45:00,57.4,41.8,29.87,SSE,163,0.0,12.0,56,0.00,,---,0.00,VWS V14.00,2013-03-16 09:45:00,
2013-03-16 05:50:00,57.3,41.8,29.88,South,179,5.0,12.0,56,0.00,,---,0.00,VWS V14.00,2013-03-16 09:50:00,
2013-03-16 05:55:00,57.0,41.5,29.88,South,173,7.0,13.0,56,0.00,,---,0.00,VWS V14.00,2013-03-16 09:55:00,
2013-03-16 06:00:00,57.3,41.3,29.88,SSE,156,1.0,18.0,55,0.00,,---,0.00,VWS V14.00,2013-03-16 10:00:00,
2013-03-16 06:05:00,57.5,41.5,29.88,South,186,2.0,18.0,55,0.00,,---,0.00,VWS V14.00,2013-03-16 10:05:00,
2013-03-16 06:10:00,57.5,41.5,29.88,South,174,4.0,9.0,55,0.00,,---,0.00,VWS V14.00,2013-03-16 10:10:00,
2013-03-16 06:15:00,57.5,41.0,29.88,SSE,167,8.0,11.0,54,0.00,,---,0.00,VWS V14.00,2013-03-16 10:15:00,
2013-03-16 06:20:00,57.6,41.1,29.88,SE,144,4.0,11.0,54,0.00,,---,0.00,VWS V14.00,2013-03-16 10:20:00,
2013-03-16 06:25:00,57.5,41.5,29.88,SSE,156,2.0,11.0,55,0.00,,---,0.00,VWS V14.00,2013-03-16 10:25:00,
2013-03-16 06:30:00,57.3,41.3,29.88,South,182,5.0,13.0,55,0.00,,---,0.00,VWS V14.00,2013-03-16 10:30:00,
2013-03-16 06:35:00,57.2,41.2,29.88,ESE,122,3.0,13.0,55,0.00,,---,0.00,VWS V14.00,2013-03-16 10:35:00,
2013-03-16 06:40:00,56.9,40.9,29.89,ESE,123,0.0,5.0,55,0.00,,---,0.00,VWS V14.00,2013-03-16 10:40:00,
2013-03-16 06:45:00,56.9,41.4,29.89,SW,236,2.0,18.0,56,0.00,,---,0.00,VWS V14.00,2013-03-16 10:45:00,
2013-03-16 06:50:00,57.1,41.1,29.89,South,182,2.0,18.0,55,0.00,,---,0.00,VWS V14.00,2013-03-16 10:50:00,
2013-03-16 06:55:00,57.1,41.6,29.89,SW,229,3.0,18.0,56,0.00,,---,0.00,VWS V14.00,2013-03-16 10:55:00,
2013-03-16 07:00:00,56.8,41.3,29.89,SSW,205,0.0,18.0,56,0.00,,---,0.00,VWS V14.00,2013-03-16 11:00:00,
2013-03-16 07:05:00,56.6,41.1,29.89,South,182,4.0,18.0,56,0.00,,---,0.00,VWS V14.00,2013-03-16 11:05:00,
2013-03-16 07:10:00,56.5,41.0,29.90,South,173,3.0,5.0,56,0.00,,---,0.00,VWS V14.00,2013-03-16 11:10:00,
2013-03-16 07:15:00,56.5,41.0,29.89,ESE,123,4.0,11.0,56,0.00,,---,0.00,VWS V14.00,2013-03-16 11:15:00,
2013-03-16 07:20:00,56.4,41.4,29.90,SSW,203,3.0,11.0,57,0.00,,---,0.00,VWS V14.00,2013-03-16 11:20:00,
2013-03-16 07:25:00,56.2,41.6,29.90,SSW,211,3.0,11.0,58,0.00,,---,0.00,VWS V14.00,2013-03-16 11:25:00,
2013-03-16 07:30:00,56.1,41.1,29.90,SSW,208,1.0,11.0,57,0.00,,---,0.00,VWS V14.00,2013-03-16 11:30:00,
2013-03-16 07:35:00,56.2,41.6,29.90,SSE,158,4.0,11.0,58,0.00,,---,0.00,VWS V14.00,2013-03-16 11:35:00,
2013-03-16 07:40:00,56.4,41.8,29.90,WSW,254,4.0,9.0,58,0.00,,---,0.00,VWS V14.00,2013-03-16 11:40:00,
2013-03-16 07:45:00,56.5,41.9,29.90,SSW,198,0.0,10.0,58,0.00,,---,0.00,VWS V14.00,2013-03-16 11:45:00,
2013-03-16 07:50:00,56.6,42.0,29.90,WSW,239,2.0,10.0,58,0.00,,---,0.00,VWS V14.00,2013-03-16 11:50:00,
2013-03-16 07:55:00,56.9,42.3,29.90,East,88,2.0,16.0,58,0.00,,---,0.00,VWS V14.00,2013-03-16 11:55:00,
2013-03-16 08:00:00,57.2,42.1,29.90,South,173,2.0,17.0,57,0.00,,---,0.00,VWS V14.00,2013-03-16 12:00:00,
2013-03-16 08:05:00,57.2,42.6,29.90,SW,217,0.0,17.0,58,0.00,,---,0.00,VWS V14.00,2013-03-16 12:05:00,
2013-03-16 08:10:00,57.1,42.5,29.90,SSW,202,1.0,6.0,58,0.00,,---,0.00,VWS V14.00,2013-03-16 12:10:00,
2013-03-16 08:15:00,57.0,42.4,29.90,ESE,117,6.0,9.0,58,0.00,,---,0.00,VWS V14.00,2013-03-16 12:15:00,
2013-03-16 08:20:00,56.9,42.7,29.90,South,173,4.0,10.0,59,0.00,,---,0.00,VWS V14.00,2013-03-16 12:20:00,
2013-03-16 08:25:00,56.8,42.6,29.90,WSW,244,2.0,10.0,59,0.00,,---,0.00,VWS V14.00,2013-03-16 12:25:00,
2013-03-16 08:30:00,56.7,43.0,29.90,South,178,3.0,10.0,60,0.00,,---,0.00,VWS V14.00,2013-03-16 12:30:00,
2013-03-16 08:35:00,56.7,42.5,29.90,SSW,192,3.0,10.0,59,0.00,,---,0.00,VWS V14.00,2013-03-16 12:35:00,
2013-03-16 08:40:00,56.7,42.5,29.90,South,182,1.0,6.0,59,0.00,,---,0.00,VWS V14.00,2013-03-16 12:40:00,
2013-03-16 08:45:00,56.8,43.1,29.90,SSW,213,4.0,9.0,60,0.00,,---,0.00,VWS V14.00,2013-03-16 12:45:00,
2013-03-16 08:50:00,56.8,43.1,29.90,South,187,2.0,9.0,60,0.00,,---,0.00,VWS V14.00,2013-03-16 12:50:00,
2013-03-16 08:55:00,56.9,43.2,29.91,South,190,3.0,9.0,60,0.00,,---,0.00,VWS V14.00,2013-03-16 12:55:00,
2013-03-16 09:00:00,57.2,43.5,29.91,SSW,196,2.0,10.0,60,0.00,,---,0.00,VWS V14.00,2013-03-16 13:00:00,
2013-03-16 09:05:00,57.5,43.7,29.90,SSE,155,6.0,11.0,60,0.00,,---,0.00,VWS V14.00,2013-03-16 13:05:00,
2013-03-16 09:10:00,57.9,44.1,29.90,SSE,162,1.0,5.0,60,0.00,,---,0.00,VWS V14.00,2013-03-16 13:10:00,
2013-03-16 09:15:00,58.2,44.0,29.90,ESE,115,3.0,13.0,59,0.00,,---,0.00,VWS V14.00,2013-03-16 13:15:00,
2013-03-16 09:20:00,58.5,43.8,29.90,South,178,2.0,13.0,58,0.00,,---,0.00,VWS V14.00,2013-03-16 13:20:00,
2013-03-16 09:25:00,58.9,44.2,29.90,South,186,5.0,13.0,58,0.00,,---,0.00,VWS V14.00,2013-03-16 13:25:00,
2013-03-16 09:30:00,59.0,44.3,29.90,South,182,3.0,13.0,58,0.00,,---,0.00,VWS V14.00,2013-03-16 13:30:00,
2013-03-16 09:35:00,59.3,44.5,29.90,SW,225,0.0,13.0,58,0.00,,---,0.00,VWS V14.00,2013-03-16 13:35:00,
2013-03-16 09:40:00,59.6,44.4,29.89,South,172,5.0,9.0,57,0.00,,---,0.00,VWS V14.00,2013-03-16 13:40:00,
2013-03-16 09:45:00,59.7,44.9,29.90,South,169,4.0,12.0,58,0.00,,---,0.00,VWS V14.00,2013-03-16 13:45:00,
2013-03-16 09:50:00,59.6,44.8,29.90,South,180,0.0,12.0,58,0.00,,---,0.00,VWS V14.00,2013-03-16 13:50:00,
2013-03-16 09:55:00,59.8,45.0,29.90,SW,218,0.0,12.0,58,0.00,,---,0.00,VWS V14.00,2013-03-16 13:55:00,
2013-03-16 10:00:00,60.1,45.3,29.90,East,94,2.0,12.0,58,0.00,,---,0.00,VWS V14.00,2013-03-16 14:00:00,
2013-03-16 10:05:00,60.6,45.8,29.89,SE,140,6.0,12.0,58,0.00,,---,0.00,VWS V14.00,2013-03-16 14:05:00,
2013-03-16 10:10:00,60.9,45.6,29.89,South,189,2.0,9.0,57,0.00,,---,0.00,VWS V14.00,2013-03-16 14:10:00,
2013-03-16 10:15:00,61.3,46.4,29.89,South,179,2.0,9.0,58,0.00,,---,0.00,VWS V14.00,2013-03-16 14:15:00,
2013-03-16 10:20:00,61.8,46.0,29.89,SSE,157,3.0,10.0,56,0.00,,---,0.00,VWS V14.00,2013-03-16 14:20:00,
2013-03-16 10:25:00,62.1,46.2,29.89,WSW,256,0.0,11.0,56,0.00,,---,0.00,VWS V14.00,2013-03-16 14:25:00,
2013-03-16 10:30:00,62.2,46.3,29.89,South,186,3.0,11.0,56,0.00,,---,0.00,VWS V14.00,2013-03-16 14:30:00,
2013-03-16 10:35:00,62.1,46.2,29.88,SSE,151,4.0,15.0,56,0.00,,---,0.00,VWS V14.00,2013-03-16 14:35:00,
2013-03-16 10:40:00,61.8,46.9,29.88,SSE,156,1.0,11.0,58,0.00,,---,0.00,VWS V14.00,2013-03-16 14:40:00,
2013-03-16 10:45:00,61.9,46.5,29.88,SSE,168,11.0,13.0,57,0.00,,---,0.00,VWS V14.00,2013-03-16 14:45:00,
2013-03-16 10:50:00,61.6,46.7,29.88,ESE,115,4.0,16.0,58,0.00,,---,0.00,VWS V14.00,2013-03-16 14:50:00,
2013-03-16 10:55:00,61.7,46.8,29.87,South,172,5.0,16.0,58,0.00,,---,0.00,VWS V14.00,2013-03-16 14:55:00,
2013-03-16 11:00:00,62.2,46.8,29.88,SSE,150,6.0,16.0,57,0.00,,---,0.00,VWS V14.00,2013-03-16 15:00:00,
2013-03-16 11:05:00,63.2,47.3,29.87,South,180,5.0,16.0,56,0.00,,---,0.00,VWS V14.00,2013-03-16 15:05:00,
2013-03-16 11:10:00,63.2,46.8,29.87,South,171,6.0,13.0,55,0.00,,---,0.00,VWS V14.00,2013-03-16 15:10:00,
2013-03-16 11:15:00,63.5,46.6,29.87,NW,309,2.0,15.0,54,0.00,,---,0.00,VWS V14.00,2013-03-16 15:15:00,
2013-03-16 11:20:00,63.8,46.8,29.87,SSE,152,9.0,18.0,54,0.00,,---,0.00,VWS V14.00,2013-03-16 15:20:00,
2013-03-16 11:25:00,64.2,47.2,29.86,SW,232,2.0,18.0,54,0.00,,---,0.00,VWS V14.00,2013-03-16 15:25:00,
2013-03-16 11:30:00,64.7,47.2,29.86,SW,226,5.0,18.0,53,0.00,,---,0.00,VWS V14.00,2013-03-16 15:30:00,
2013-03-16 11:35:00,64.6,47.6,29.85,SSE,165,11.0,18.0,54,0.00,,---,0.00,VWS V14.00,2013-03-16 15:35:00,
2013-03-16 11:40:00,65.1,47.1,29.86,ESE,102,2.0,12.0,52,0.00,,---,0.00,VWS V14.00,2013-03-16 15:40:00,
2013-03-16 11:45:00,65.5,46.9,29.86,North,360,2.0,12.0,51,0.00,,---,0.00,VWS V14.00,2013-03-16 15:45:00,
2013-03-16 11:50:00,65.5,47.4,29.86,South,171,3.0,17.0,52,0.00,,---,0.00,VWS V14.00,2013-03-16 15:50:00,
2013-03-16 11:55:00,65.6,47.0,29.85,NW,320,11.0,17.0,51,0.00,,---,0.00,VWS V14.00,2013-03-16 15:55:00,
2013-03-16 12:00:00,65.9,46.8,29.85,SSE,152,0.0,19.0,50,0.00,,---,0.00,VWS V14.00,2013-03-16 16:00:00,
2013-03-16 12:05:00,66.3,47.1,29.85,South,175,9.0,19.0,50,0.00,,---,0.00,VWS V14.00,2013-03-16 16:05:00,
2013-03-16 12:10:00,66.6,47.4,29.85,SSW,205,5.0,10.0,50,0.00,,---,0.00,VWS V14.00,2013-03-16 16:10:00,
2013-03-16 12:15:00,67.6,47.8,29.84,SSE,153,2.0,10.0,49,0.00,,---,0.00,VWS V14.00,2013-03-16 16:15:00,
2013-03-16 12:20:00,67.6,47.2,29.85,NNW,348,4.0,11.0,48,0.00,,---,0.00,VWS V14.00,2013-03-16 16:20:00,
2013-03-16 12:25:00,67.7,47.3,29.84,West,277,2.0,11.0,48,0.00,,---,0.00,VWS V14.00,2013-03-16 16:25:00,
2013-03-16 12:30:00,68.1,47.1,29.84,South,177,9.0,11.0,47,0.00,,---,0.00,VWS V14.00,2013-03-16 16:30:00,
2013-03-16 12:35:00,68.5,47.5,29.83,SE,146,4.0,11.0,47,0.00,,---,0.00,VWS V14.00,2013-03-16 16:35:00,
2013-03-16 12:40:00,68.4,46.8,29.84,SSE,165,5.0,13.0,46,0.00,,---,0.00,VWS V14.00,2013-03-16 16:40:00,
2013-03-16 12:45:00,67.6,46.7,29.84,South,169,10.0,17.0,47,0.00,,---,0.00,VWS V14.00,2013-03-16 16:45:00,
2013-03-16 12:50:00,67.6,47.2,29.83,ESE,109,5.0,17.0,48,0.00,,---,0.00,VWS V14.00,2013-03-16 16:50:00,
2013-03-16 12:55:00,68.2,47.8,29.83,South,175,0.0,17.0,48,0.00,,---,0.00,VWS V14.00,2013-03-16 16:55:00,
2013-03-16 13:00:00,68.5,48.1,29.83,SE,128,12.0,19.0,48,0.00,,---,0.00,VWS V14.00,2013-03-16 17:00:00,
2013-03-16 13:05:00,67.9,47.0,29.82,SSW,195,6.0,19.0,47,0.00,,---,0.00,VWS V14.00,2013-03-16 17:05:00,
2013-03-16 13:10:00,67.9,47.0,29.82,SE,142,13.0,15.0,47,0.00,,---,0.00,VWS V14.00,2013-03-16 17:10:00,
2013-03-16 13:15:00,67.6,47.8,29.82,SSE,163,7.0,21.0,49,0.00,,---,0.00,VWS V14.00,2013-03-16 17:15:00,
2013-03-16 13:20:00,68.1,47.1,29.82,SE,140,13.0,21.0,47,0.00,,---,0.00,VWS V14.00,2013-03-16 17:20:00,
2013-03-16 13:25:00,68.5,48.1,29.82,SE,138,12.0,21.0,48,0.00,,---,0.00,VWS V14.00,2013-03-16 17:25:00,
2013-03-16 13:30:00,69.3,47.7,29.82,SSW,207,2.0,21.0,46,0.00,,---,0.00,VWS V14.00,2013-03-16 17:30:00,
2013-03-16 13:35:00,69.9,47.0,29.81,South,176,1.0,21.0,44,0.00,,---,0.00,VWS V14.00,2013-03-16 17:35:00,
2013-03-16 13:40:00,70.1,47.2,29.81,SSE,152,8.0,14.0,44,0.00,,---,0.00,VWS V14.00,2013-03-16 17:40:00,
2013-03-16 13:45:00,69.6,46.8,29.81,SSW,198,5.0,14.0,44,0.00,,---,0.00,VWS V14.00,2013-03-16 17:45:00,
2013-03-16 13:50:00,69.1,46.9,29.81,SE,138,2.0,14.0,45,0.00,,---,0.00,VWS V14.00,2013-03-16 17:50:00,
2013-03-16 13:55:00,68.4,46.8,29.81,ESE,119,10.0,19.0,46,0.00,,---,0.00,VWS V14.00,2013-03-16 17:55:00,
2013-03-16 14:00:00,69.0,47.4,29.81,SSE,153,6.0,19.0,46,0.00,,---,0.00,VWS V14.00,2013-03-16 18:00:00,
2013-03-16 14:05:00,69.3,47.7,29.80,ESE,123,3.0,19.0,46,0.00,,---,0.00,VWS V14.00,2013-03-16 18:05:00,
2013-03-16 14:10:00,69.9,47.0,29.80,SSE,163,4.0,17.0,44,0.00,,---,0.00,VWS V14.00,2013-03-16 18:10:00,
2013-03-16 14:15:00,70.4,48.1,29.80,South,184,0.0,17.0,45,0.00,,---,0.00,VWS V14.00,2013-03-16 18:15:00,
2013-03-16 14:20:00,71.3,47.0,29.79,South,173,13.0,17.0,42,0.00,,---,0.00,VWS V14.00,2013-03-16 18:20:00,
2013-03-16 14:25:00,71.4,47.8,29.80,SSE,159,6.0,17.0,43,0.00,,---,0.00,VWS V14.00,2013-03-16 18:25:00,
2013-03-16 14:30:00,71.3,47.7,29.79,SSE,168,3.0,17.0,43,0.00,,---,0.00,VWS V14.00,2013-03-16 18:30:00,
2013-03-16 14:35:00,71.1,47.5,29.79,South,178,1.0,17.0,43,0.00,,---,0.00,VWS V14.00,2013-03-16 18:35:00,
2013-03-16 14:40:00,70.3,46.8,29.79,South,186,4.0,12.0,43,0.00,,---,0.00,VWS V14.00,2013-03-16 18:40:00,
2013-03-16 14:45:00,69.8,46.9,29.79,SSE,164,6.0,13.0,44,0.00,,---,0.00,VWS V14.00,2013-03-16 18:45:00,
2013-03-16 14:50:00,68.8,47.2,29.79,SSE,165,2.0,13.0,46,0.00,,---,0.00,VWS V14.00,2013-03-16 18:50:00,
2013-03-16 14:55:00,69.0,47.4,29.79,SSE,151,2.0,18.0,46,0.00,,---,0.00,VWS V14.00,2013-03-16 18:55:00,
2013-03-16 15:00:00,70.3,48.6,29.78,South,176,2.0,18.0,46,0.00,,---,0.00,VWS V14.00,2013-03-16 19:00:00,
2013-03-16 15:05:00,71.4,48.4,29.78,South,178,9.0,18.0,44,0.00,,---,0.00,VWS V14.00,2013-03-16 19:05:00,
2013-03-16 15:10:00,71.8,47.5,29.77,SSE,165,11.0,17.0,42,0.00,,---,0.00,VWS V14.00,2013-03-16 19:10:00,
2013-03-16 15:15:00,71.3,47.7,29.78,South,178,6.0,21.0,43,0.00,,---,0.00,VWS V14.00,2013-03-16 19:15:00,
2013-03-16 15:20:00,71.2,47.6,29.78,SE,134,7.0,21.0,43,0.00,,---,0.00,VWS V14.00,2013-03-16 19:20:00,
2013-03-16 15:25:00,71.5,47.2,29.78,NNW,336,10.0,21.0,42,0.00,,---,0.00,VWS V14.00,2013-03-16 19:25:00,
2013-03-16 15:30:00,71.3,47.0,29.78,South,169,4.0,21.0,42,0.00,,---,0.00,VWS V14.00,2013-03-16 19:30:00,
2013-03-16 15:35:00,70.5,47.0,29.78,South,175,3.0,21.0,43,0.00,,---,0.00,VWS V14.00,2013-03-16 19:35:00,
2013-03-16 15:40:00,70.5,47.0,29.78,SSE,164,10.0,22.0,43,0.00,,---,0.00,VWS V14.00,2013-03-16 19:40:00,
2013-03-16 15:45:00,71.2,47.6,29.78,SSE,167,7.0,22.0,43,0.00,,---,0.00,VWS V14.00,2013-03-16 19:45:00,
2013-03-16 15:50:00,70.7,47.1,29.78,SSE,160,14.0,22.0,43,0.00,,---,0.00,VWS V14.00,2013-03-16 19:50:00,
2013-03-16 15:55:00,70.1,47.2,29.79,ENE,78,3.0,22.0,44,0.00,,---,0.00,VWS V14.00,2013-03-16 19:55:00,
2013-03-16 16:00:00,70.2,47.3,29.78,SW,220,1.0,22.0,44,0.00,,---,0.00,VWS V14.00,2013-03-16 20:00:00,
2013-03-16 16:05:00,70.4,47.5,29.78,SE,132,1.0,22.0,44,0.00,,---,0.00,VWS V14.00,2013-03-16 20:05:00,
2013-03-16 16:10:00,70.4,47.5,29.78,South,177,3.0,12.0,44,0.00,,---,0.00,VWS V14.00,2013-03-16 20:10:00,
2013-03-16 16:15:00,70.7,47.7,29.78,SSW,211,6.0,12.0,44,0.00,,---,0.00,VWS V14.00,2013-03-16 20:15:00,
2013-03-16 16:20:00,70.9,47.9,29.78,South,170,0.0,13.0,44,0.00,,---,0.00,VWS V14.00,2013-03-16 20:20:00,
2013-03-16 16:25:00,71.3,47.7,29.78,SSE,150,0.0,14.0,43,0.00,,---,0.00,VWS V14.00,2013-03-16 20:25:00,
2013-03-16 16:30:00,71.3,47.7,29.78,SSE,155,14.0,14.0,43,0.00,,---,0.00,VWS V14.00,2013-03-16 20:30:00,
2013-03-16 16:35:00,70.9,47.9,29.78,SSE,153,0.0,14.0,44,0.00,,---,0.00,VWS V14.00,2013-03-16 20:35:00,
2013-03-16 16:40:00,70.6,47.7,29.78,ESE,123,6.0,7.0,44,0.00,,---,0.00,VWS V14.00,2013-03-16 20:40:00,
2013-03-16 16:45:00,70.7,47.1,29.78,ESE,116,6.0,17.0,43,0.00,,---,0.00,VWS V14.00,2013-03-16 20:45:00,
2013-03-16 16:50:00,70.3,47.4,29.78,South,172,7.0,17.0,44,0.00,,---,0.00,VWS V14.00,2013-03-16 20:50:00,
2013-03-16 16:55:00,70.0,47.1,29.78,SSW,202,0.0,17.0,44,0.00,,---,0.00,VWS V14.00,2013-03-16 20:55:00,
2013-03-16 17:00:00,70.5,47.6,29.78,South,176,5.0,17.0,44,0.00,,---,0.00,VWS V14.00,2013-03-16 21:00:00,
2013-03-16 17:05:00,70.4,47.5,29.77,SSW,211,5.0,17.0,44,0.00,,---,0.00,VWS V14.00,2013-03-16 21:05:00,
2013-03-16 17:10:00,70.7,47.7,29.77,SSW,198,6.0,11.0,44,0.00,,---,0.00,VWS V14.00,2013-03-16 21:10:00,
2013-03-16 17:15:00,70.5,47.0,29.77,South,178,1.0,18.0,43,0.00,,---,0.00,VWS V14.00,2013-03-16 21:15:00,
2013-03-16 17:20:00,70.3,48.0,29.78,SW,228,0.0,18.0,45,0.00,,---,0.00,VWS V14.00,2013-03-16 21:20:00,
2013-03-16 17:25:00,70.4,47.5,29.78,SE,136,10.0,18.0,44,0.00,,---,0.00,VWS V14.00,2013-03-16 21:25:00,
2013-03-16 17:30:00,70.1,47.2,29.78,SSW,200,6.0,18.0,44,0.00,,---,0.00,VWS V14.00,2013-03-16 21:30:00,
2013-03-16 17:35:00,70.0,47.7,29.79,South,188,9.0,18.0,45,0.00,,---,0.00,VWS V14.00,2013-03-16 21:35:00,
2013-03-16 17:40:00,69.4,47.2,29.78,East,91,1.0,15.0,45,0.00,,---,0.00,VWS V14.00,2013-03-16 21:40:00,
2013-03-16 17:45:00,69.0,46.8,29.78,West,267,2.0,15.0,45,0.00,,---,0.00,VWS V14.00,2013-03-16 21:45:00,
2013-03-16 17:50:00,68.7,47.1,29.78,SE,138,24.0,24.0,46,0.00,,---,0.00,VWS V14.00,2013-03-16 21:50:00,
2013-03-16 17:55:00,68.5,46.9,29.78,ESE,109,8.0,24.0,46,0.00,,---,0.00,VWS V14.00,2013-03-16 21:55:00,
2013-03-16 18:00:00,68.3,46.7,29.78,SSE,148,3.0,24.0,46,0.00,,---,0.00,VWS V14.00,2013-03-16 22:00:00,
2013-03-16 18:05:00,68.2,46.7,29.78,South,180,7.0,24.0,46,0.00,,---,0.00,VWS V14.00,2013-03-16 22:05:00,
2013-03-16 18:10:00,68.1,47.1,29.79,SW,222,0.0,10.0,47,0.00,,---,0.00,VWS V14.00,2013-03-16 22:10:00,
2013-03-16 18:15:00,68.1,46.6,29.79,NNW,342,5.0,10.0,46,0.00,,---,0.00,VWS V14.00,2013-03-16 22:15:00,
2013-03-16 18:20:00,67.9,46.4,29.79,NNE,33,4.0,18.0,46,0.00,,---,0.00,VWS V14.00,2013-03-16 22:20:00,
2013-03-16 18:25:00,67.8,46.3,29.80,SSE,159,0.0,18.0,46,0.00,,---,0.00,VWS V14.00,2013-03-16 22:25:00,
2013-03-16 18:30:00,67.7,46.2,29.80,South,171,7.0,18.0,46,0.00,,---,0.00,VWS V14.00,2013-03-16 22:30:00,
2013-03-16 18:35:00,67.6,46.1,29.80,SSW,194,10.0,18.0,46,0.00,,---,0.00,VWS V14.00,2013-03-16 22:35:00,
2013-03-16 18:40:00,67.5,46.0,29.80,South,190,0.0,11.0,46,0.00,,---,0.00,VWS V14.00,2013-03-16 22:40:00,
2013-03-16 18:45:00,67.5,46.0,29.80,South,179,0.0,11.0,46,0.00,,---,0.00,VWS V14.00,2013-03-16 22:45:00,
2013-03-16 18:50:00,67.5,46.0,29.81,South,183,0.0,11.0,46,0.00,,---,0.00,VWS V14.00,2013-03-16 22:50:00,
2013-03-16 18:55:00,67.4,46.5,29.81,South,171,3.0,11.0,47,0.00,,---,0.00,VWS V14.00,2013-03-16 22:55:00,
2013-03-16 19:00:00,67.3,46.4,29.81,SSE,164,4.0,11.0,47,0.00,,---,0.00,VWS V14.00,2013-03-16 23:00:00,
2013-03-16 19:05:00,67.1,45.7,29.82,WSW,237,5.0,13.0,46,0.00,,---,0.00,VWS V14.00,2013-03-16 23:05:00,
2013-03-16 19:10:00,67.1,46.2,29.82,South,174,6.0,7.0,47,0.00,,---,0.00,VWS V14.00,2013-03-16 23:10:00,
2013-03-16 19:15:00,67.0,46.1,29.82,SSW,209,4.0,12.0,47,0.00,,---,0.00,VWS V14.00,2013-03-16 23:15:00,
2013-03-16 19:20:00,66.9,46.0,29.82,East,83,0.0,12.0,47,0.00,,---,0.00,VWS V14.00,2013-03-16 23:20:00,
2013-03-16 19:25:00,66.8,45.9,29.83,South,186,0.0,12.0,47,0.00,,---,0.00,VWS V14.00,2013-03-16 23:25:00,
2013-03-16 19:30:00,66.6,45.8,29.83,SE,146,9.0,13.0,47,0.00,,---,0.00,VWS V14.00,2013-03-16 23:30:00,
2013-03-16 19:35:00,66.5,45.7,29.83,South,178,11.0,17.0,47,0.00,,---,0.00,VWS V14.00,2013-03-16 23:35:00,
2013-03-16 19:40:00,66.4,45.6,29.83,SE,141,3.0,11.0,47,0.00,,---,0.00,VWS V14.00,2013-03-16 23:40:00,
2013-03-16 19:45:00,66.2,46.0,29.84,SE,140,0.0,13.0,48,0.00,,---,0.00,VWS V14.00,2013-03-16 23:45:00,
2013-03-16 19:50:00,66.0,45.8,29.84,SSE,152,6.0,13.0,48,0.00,,---,0.00,VWS V14.00,2013-03-16 23:50:00,
2013-03-16 19:55:00,65.8,45.6,29.84,SSW,197,0.0,13.0,48,0.00,,---,0.00,VWS V14.00,2013-03-16 23:55:00,
2013-03-16 20:00:00,65.5,45.3,29.84,SW,230,2.0,15.0,48,0.00,,---,0.00,VWS V14.00,2013-03-17 00:00:00,
2013-03-16 20:05:00,65.3,45.7,29.84,SSE,150,0.0,15.0,49,0.00,,---,0.00,VWS V14.00,2013-03-17 00:05:00,
2013-03-16 20:10:00,65.2,45.6,29.85,South,190,3.0,12.0,49,0.00,,---,0.00,VWS V14.00,2013-03-17 00:10:00,
2013-03-16 20:15:00,65.2,45.6,29.85,SSE,148,0.0,13.0,49,0.00,,---,0.00,VWS V14.00,2013-03-17 00:15:00,
2013-03-16 20:20:00,65.1,45.5,29.85,SSW,205,3.0,13.0,49,0.00,,---,0.00,VWS V14.00,2013-03-17 00:20:00,
2013-03-16 20:25:00,65.0,45.4,29.85,South,179,0.0,13.0,49,0.00,,---,0.00,VWS V14.00,2013-03-17 00:25:00,
2013-03-16 20:30:00,65.0,45.9,29.86,South,172,9.0,13.0,50,0.00,,---,0.00,VWS V14.00,2013-03-17 00:30:00,
2013-03-16 20:35:00,64.8,45.2,29.86,WSW,248,2.0,14.0,49,0.00,,---,0.00,VWS V14.00,2013-03-17 00:35:00,
2013-03-16 20:40:00,64.7,45.7,29.86,WNW,298,1.0,6.0,50,0.00,,---,0.00,VWS V14.00,2013-03-17 00:40:00,
2013-03-16 20:45:00,64.6,45.6,29.86,SW,227,3.0,9.0,50,0.00,,---,0.00,VWS V14.00,2013-03-17 00:45:00,
2013-03-16 20:50:00,64.5,45.5,29.86,SE,138,6.0,9.0,50,0.00,,---,0.00,VWS V14.00,2013-03-17 00:50:00,
2013-03-16 20:55:00,64.5,45.5,29.86,South,184,5.0,11.0,50,0.00,,---,0.00,VWS V14.00,2013-03-17 00:55:00,
2013-03-16 21:00:00,64.4,45.4,29.87,WSW,257,0.0,11.0,50,0.00,,---,0.00,VWS V14.00,2013-03-17 01:00:00,
2013-03-16 21:05:00,64.3,45.3,29.87,SSE,161,3.0,12.0,50,0.00,,---,0.00,VWS V14.00,2013-03-17 01:05:00,
2013-03-16 21:10:00,64.3,45.3,29.86,SSE,149,12.0,13.0,50,0.00,,---,0.00,VWS V14.00,2013-03-17 01:10:00,
2013-03-16 21:15:00,64.1,45.1,29.86,SSE,148,6.0,13.0,50,0.00,,---,0.00,VWS V14.00,2013-03-17 01:15:00,
2013-03-16 21:20:00,64.1,45.1,29.87,SSW,192,9.0,13.0,50,0.00,,---,0.00,VWS V14.00,2013-03-17 01:20:00,
2013-03-16 21:25:00,64.0,45.5,29.86,South,177,3.0,13.0,51,0.00,,---,0.00,VWS V14.00,2013-03-17 01:25:00,
2013-03-16 21:30:00,63.9,45.4,29.87,SE,145,9.0,18.0,51,0.00,,---,0.00,VWS V14.00,2013-03-17 01:30:00,
2013-03-16 21:35:00,63.8,45.3,29.87,SSW,193,0.0,18.0,51,0.00,,---,0.00,VWS V14.00,2013-03-17 01:35:00,
2013-03-16 21:40:00,63.6,45.7,29.87,South,190,2.0,6.0,52,0.00,,---,0.00,VWS V14.00,2013-03-17 01:40:00,
2013-03-16 21:45:00,63.3,45.4,29.87,South,174,1.0,7.0,52,0.00,,---,0.00,VWS V14.00,2013-03-17 01:45:00,
2013-03-16 21:50:00,63.2,45.3,29.87,South,186,1.0,7.0,52,0.00,,---,0.00,VWS V14.00,2013-03-17 01:50:00,
2013-03-16 21:55:00,63.0,45.1,29.88,SSW,209,6.0,7.0,52,0.00,,---,0.00,VWS V14.00,2013-03-17 01:55:00,
2013-03-16 22:00:00,62.9,45.5,29.88,SSE,159,3.0,9.0,53,0.00,,---,0.00,VWS V14.00,2013-03-17 02:00:00,
2013-03-16 22:05:00,62.8,45.4,29.88,SSW,209,1.0,9.0,53,0.00,,---,0.00,VWS V14.00,2013-03-17 02:05:00,
2013-03-16 22:10:00,62.7,45.3,29.88,SSE,168,0.0,5.0,53,0.00,,---,0.00,VWS V14.00,2013-03-17 02:10:00,
2013-03-16 22:15:00,62.7,45.3,29.88,SW,219,6.0,11.0,53,0.00,,---,0.00,VWS V14.00,2013-03-17 02:15:00,
2013-03-16 22:20:00,62.7,45.3,29.88,SSE,156,0.0,11.0,53,0.00,,---,0.00,VWS V14.00,2013-03-17 02:20:00,
2013-03-16 22:25:00,62.7,45.3,29.88,SSW,194,9.0,11.0,53,0.00,,---,0.00,VWS V14.00,2013-03-17 02:25:00,
2013-03-16 22:30:00,62.7,45.3,29.88,South,188,2.0,12.0,53,0.00,,---,0.00,VWS V14.00,2013-03-17 02:30:00,
2013-03-16 22:35:00,62.6,45.2,29.88,ESE,118,5.0,12.0,53,0.00,,---,0.00,VWS V14.00,2013-03-17 02:35:00,
2013-03-16 22:40:00,62.5,45.7,29.88,South,191,9.0,11.0,54,0.00,,---,0.00,VWS V14.00,2013-03-17 02:40:00,
2013-03-16 22:44:00,62.3,45.0,29.89,SSE,156,1.0,11.0,53,0.00,,---,0.00,VWS V14.00,2013-03-17 02:44:00,
2013-03-16 22:49:00,62.2,45.4,29.89,ESE,115,2.0,12.0,54,0.00,,---,0.00,VWS V14.00,2013-03-17 02:49:00,
2013-03-16 22:55:00,62.2,45.4,29.89,SSE,162,0.0,12.0,54,0.00,,---,0.00,VWS V14.00,2013-03-17 02:55:00,
2013-03-16 22:59:00,62.1,45.3,29.89,ESE,123,2.0,12.0,54,0.00,,---,0.00,VWS V14.00,2013-03-17 02:59:00,
2013-03-16 23:04:00,62.0,45.2,29.89,South,186,0.0,12.0,54,0.00,,---,0.00,VWS V14.00,2013-03-17 03:04:00,
2013-03-16 23:09:00,61.8,45.0,29.88,SSE,156,0.0,10.0,54,0.00,,---,0.00,VWS V14.00,2013-03-17 03:09:00,
2013-03-16 23:14:00,61.6,45.3,29.88,SE,144,2.0,10.0,55,0.00,,---,0.00,VWS V14.00,2013-03-17 03:14:00,
2013-03-16 23:19:00,61.4,45.1,29.88,SSE,160,0.0,10.0,55,0.00,,---,0.00,VWS V14.00,2013-03-17 03:19:00,
2013-03-16 23:24:00,61.3,45.0,29.89,South,188,5.0,10.0,55,0.00,,---,0.00,VWS V14.00,2013-03-17 03:24:00,
2013-03-16 23:29:00,61.1,45.3,29.89,South,180,6.0,10.0,56,0.00,,---,0.00,VWS V14.00,2013-03-17 03:29:00,
2013-03-16 23:34:00,61.1,45.3,29.89,SSE,167,1.0,10.0,56,0.00,,---,0.00,VWS V14.00,2013-03-17 03:34:00,
2013-03-16 23:39:00,61.1,45.3,29.89,SSE,162,1.0,11.0,56,0.00,,---,0.00,VWS V14.00,2013-03-17 03:39:00,
2013-03-16 23:44:00,61.1,45.3,29.89,SSW,200,0.0,11.0,56,0.00,,---,0.00,VWS V14.00,2013-03-17 03:44:00,
2013-03-16 23:49:00,61.1,45.3,29.89,SSE,168,4.0,11.0,56,0.00,,---,0.00,VWS V14.00,2013-03-17 03:49:00,
2013-03-16 23:54:00,61.1,45.3,29.89,South,182,0.0,11.0,56,0.00,,---,0.00,VWS V14.00,2013-03-17 03:54:00,
2013-03-16 23:59:00,61.2,45.4,29.89,South,169,0.0,11.0,56,0.00,,---,0.00,VWS V14.00,2013-03-17 03:59:00,